Powrót do katalogu

FENGYUN 1C DEB

LostPO
NORAD 36139·DEBRIS·🇨🇳 China

Wystrzelony May 10, 1999 z Taiyuan Satellite Launch Center

Loading…

Następne Przeloty (najbliższe 24 godziny)

TLE

NieaktualneSource: Space-Track

Epoka: May 27, 2023, 03:57 UTC

1 36139U 99025DRL 23147.16509517  .00006654  00000-0  32024-2 0  9992
2 36139  97.9448 126.1065 0141720  94.9001 266.8371 14.13895355441268

Śledź FENGYUN 1C DEB w czasie rzeczywistym z AllMySat

Download on the App Store